This is the latest recevied weather packets stored in our database for station/object W5CRT. If no packets are shown the sender has not sent any weather packets the latest 10 day(s).
| Time | Temp. | Humidity | Pressure | Rain* | Wind** | Luminosity | Snow |
|---|---|---|---|---|---|---|---|
| 1778002875 | 27.78° C | 67% | 1003.4 hPa | 0 mm | - | 622 W/m² | - |
| 1778002572 | 27.78° C | 66% | 1003.6 hPa | 0 mm | - | 681 W/m² | - |
| 1778002268 | 27.78° C | 68% | 1003.3 hPa | 0 mm | - | 783 W/m² | - |
| 1778001966 | 27.22° C | 68% | 1003.5 hPa | 0 mm | - | 737 W/m² | - |
| 1778001663 | 26.67° C | 70% | 1003.6 hPa | 0 mm | - | 1218 W/m² | - |
| 1778001363 | 26.67° C | 69% | 1004 hPa | 0 mm | - | 415 W/m² | - |
| 1778001060 | 27.22° C | 68% | 1003.8 hPa | 0 mm | - | 620 W/m² | - |
| 1778000757 | 27.22° C | 68% | 1003.8 hPa | 0 mm | - | 725 W/m² | - |
| 1778000454 | 27.22° C | 68% | 1003.4 hPa | 0 mm | - | 793 W/m² | - |
| 1778000149 | 27.22° C | 70% | 1003.6 hPa | 0 mm | - | 1080 W/m² | - |
| 1777999845 | 26.67° C | 69% | 1003.5 hPa | 0 mm | - | 645 W/m² | - |
| 1777999541 | 26.67° C | 71% | 1003.6 hPa | 0 mm | - | 594 W/m² | - |
| 1777999238 | 26.67° C | 70% | 1003.8 hPa | 0 mm | - | 770 W/m² | - |
| 1777998937 | 26.11° C | 71% | 1003.6 hPa | 0 mm | - | 615 W/m² | - |
| 1777998634 | 26.11° C | 72% | 1003.6 hPa | 0 mm | - | 597 W/m² | - |
| 1777998332 | 25.56° C | 72% | 1003.2 hPa | 0 mm | - | 610 W/m² | - |
| 1777998029 | 25.56° C | 72% | 1003.4 hPa | 0 mm | - | 643 W/m² | - |
| 1777997726 | 25.56° C | 72% | 1003.3 hPa | 0 mm | - | 553 W/m² | - |
| 1777997423 | 26.11° C | 71% | 1003.2 hPa | 0 mm | - | 511 W/m² | - |
| 1777997121 | 25.56° C | 73% | 1003.1 hPa | 0 mm | - | 555 W/m² | - |
| 1777996818 | 25.56° C | 73% | 1003.1 hPa | 0 mm | - | 774 W/m² | - |
| 1777996514 | 25° C | 74% | 1003.1 hPa | 0 mm | - | 592 W/m² | - |
| 1777996211 | 25° C | 75% | 1003.2 hPa | 0 mm | - | 546 W/m² | - |
| 1777995907 | 25° C | 74% | 1003.2 hPa | 0 mm | - | 476 W/m² | - |
| 1777995603 | 25° C | 74% | 1003.4 hPa | 0 mm | - | 420 W/m² | - |
* Rain latest hour (hover to see other rain measurements)
** Current wind speed in m/s (hover to see current wind gust speed)